Location: Ballingbuur
(53.0000°N, 5.7667°E)
Time: 06:13:20
(UTC+00:00)

RESURS DK-1 - Pass Details

Date: 29 November 2020
Orbit: 557 x 560 km, 69.9° (Epoch: 23 January)

Event Time Altitude Azimuth Distance (km) Brightness Sun altitude
Exits shadow 04:27:12 - 182° (S) 2,772 5.9 -25.7°
Rises 04:27:18 0° 181° (S) 2,738 5.9 -25.7°
Reaches altitude 10° 04:29:42 10° 170° (S) 1,847 5.1 -25.3°
Maximum altitude 04:33:14 28° 111° (ESE) 1,067 4.4 -24.8°
Drops below altitude 10° 04:36:48 10° 52° (NE) 1,861 5.6 -24.3°
Sets 04:39:14 0° 41° (NE) 2,762 6.4 -23.9°
